Vertical_Velocity
0 -6 0 3 -1 2 1 -1 2 -0 1 0 -1 -0 -1 -2 -2 -1 -1 -1 -1 -1 0 -0 -1 -2 -2 -3 -2 -4 -5 -5 -3 -5 -7 -9 -6 2 -2 1 1 -3 -3
-0 -5 5 1 1 2 1 3 6 3 3 3 1 -3 -4 1 0 1 2 1 1 1 -1 -2 -1 -0 -0 -0 -1 -2 -5 -3 2 0 0 -6 -22 0 -20 -11 -11 -4 -6
-4 -4 3 1 4 2 0 1 -2 -1 1 -1 -2 -1 1 0 -0 1 0 0 -1 -2 -1 -0 -3 -2 -2 -2 -2 -3 -1 -5 -1 0 7 -3 -1 -5 -8 -11 -4 -1 -6
4 -2 1 1 2 3 1 3 1 0 0 1 -0 -0 -1 -1 -0 -1 -2 -0 1 -1 -3 -4 -3 -3 -2 -1 -2 -2 -2 -0 -5 -8 1 7 12 2 -12 -10 -22 -7 -9
-2 -1 -1 1 2 3 2 2 -0 1 3 3 2 1 -2 -1 0 1 1 -2 -6 -3 -1 -3 -3 -3 -2 -1 -2 -2 -1 -1 -0 2 -5 -7 -3 3 8 -7 -10 -6 -6
2 2 1 1 1 2 2 1 2 0 1 0 -1 -1 -2 -1 0 -1 -2 -1 -1 -1 -2 -3 -2 -1 -1 -2 -2 -0 -0 -0 2 2 1 3 2 -5 0 -2 -6 5 -6
2 -0 -2 0 -0 1 2 2 3 -0 1 -1 -0 -0 -1 -1 -1 -0 0 1 -0 -2 -2 -2 -2 -1 -1 1 -1 -1 1 0 -1 -2 -3 1 1 4 3 7 -6 -0 -7
0 -3 1 1 -0 1 1 1 1 -1 1 1 -1 -1 -1 0 -0 -0 -1 -2 -1 -2 -1 -1 -0 0 1 0 0 0 -1 -4 -2 -2 -1 -1 -2 0 3 6 13 -19 -10
-1 -2 3 1 0 0 1 -0 -0 -0 1 -0 -0 0 -0 -1 -2 -2 -2 -3 -3 -1 -2 -2 -1 -1 -1 -2 -4 -4 -3 -3 -2 -2 -2 -1 -0 -1 2 3 5 12 -1
0 5 2 0 1 1 -0 1 1 0 -0 -0 -0 -1 -1 -1 -2 -2 -3 -2 -2 -2 -1 -1 -2 -3 -2 -1 -2 -1 -1 -1 -2 -1 -1 -1 2 1 -0 3 5 6 4
-0 2 2 1 1 1 1 -1 0 0 0 0 -1 -0 -1 -2 -2 -2 -3 -3 -2 -2 -3 -3 -2 -2 -2 -0 0 -0 -2 -2 -1 -0 -1 -2 1 0 3 -1 3 -1 6
2 0 1 -0 -1 -0 0 0 0 -0 1 0 0 -1 -2 -2 -3 -3 -3 -2 -2 -2 -2 -2 -2 -1 -1 -1 -2 -3 -1 -0 -2 -3 -3 -2 2 -2 -2 1 -2 2 -3
4 1 3 0 -2 0 1 -0 -1 1 2 1 -1 -1 -3 -3 -4 -3 -2 -2 -2 -1 -1 -1 -2 -3 -3 -4 -3 -1 0 1 -0 -1 -2 -2 -1 -2 3 1 -3 -0 0
-0 1 4 -1 0 1 0 1 1 -0 1 0 -1 -2 -2 -2 -2 -1 -2 -2 -2 -2 -1 -0 -2 -1 -2 -2 -2 2 -2 -3 -2 -3 -0 -2 2 2 -0 0 5 6 4
2 3 1 -1 2 2 2 2 0 1 1 -0 -1 -1 -2 -2 -1 -2 -2 -2 -2 -1 -1 -2 -3 -5 -1 -1 -1 -1 -1 -2 -5 -3 -3 2 0 2 3 18 4 3 -1
2 1 -1 -0 1 0 0 1 -0 0 0 -0 -1 -2 -2 -2 -2 -0 -2 -4 -1 1 -2 -5 -2 -2 -2 0 -1 2 1 -1 -3 -5 -1 -2 -4 -5 3 -7 -5 13 18
-2 -0 -1 2 1 -1 0 -1 -1 -0 0 -1 -2 -2 -2 -2 -2 -3 -2 2 -2 -5 -3 1 1 -3 -3 -2 1 1 0 -0 -2 -2 -4 -4 1 -5 -4 -7 1 -4 -5
1 3 3 3 3 2 1 -1 -1 1 -1 -1 -2 -1 -3 -3 -2 1 2 -2 -4 -1 -0 -3 -3 -3 -2 -2 -1 -1 -0 -1 -2 -0 -2 0 -3 0 3 5 4 3 -3
4 1 1 1 1 0 -1 -1 -0 -0 -1 -1 -2 -3 -1 -1 -1 -2 -4 -2 -1 -2 -4 -3 -2 -0 -2 2 -2 1 3 -2 -1 1 2 2 -5 -3 4 8 5 -0 -5
1 -2 1 -1 0 -1 -1 -1 -0 -1 -0 -1 -1 -1 -2 -1 -1 -2 -2 -1 -1 -5 -2 -4 3 3 -0 -1 0 3 -0 2 0 6 1 -5 2 -5 1 13 7 2 -8
-1 0 1 -1 -2 -1 -1 -0 0 -1 -1 -1 -2 -1 -1 1 -2 -4 -1 -3 -5 -1 1 3 -0 -1 -0 1 0 -3 7 1 4 1 -9 -4 -5 6 2 6 8 -1 17
-1 2 -3 -1 0 1 1 -0 -1 0 -1 -2 -2 1 0 -4 -2 -2 -3 -4 -2 -1 -0 -3 -3 -2 -2 -4 -5 1 1 5 4 -1 -3 -4 16 -3 0 1 -7 2 1
-2 -0 -0 -2 1 1 0 -0 -0 -2 -2 0 3 -2 -4 0 0 -3 -4 -4 -0 0 -2 -4 -4 -6 -5 -3 -5 -5 1 -7 2 -3 -1 -2 -4 -4 -9 -3 0 -2 -6
-2 -2 -1 0 -1 0 -0 -2 -1 0 2 1 -4 -4 1 -2 -2 -2 0 1 0 -2 -2 -2 -2 -2 -5 -3 -3 6 0 -1 -6 -4 12 -1 -2 1 1 -11 -6 -1 4
-0 1 -0 -0 0 -1 -0 -0 1 1 -1 -5 -3 1 -2 -3 -4 0 -1 -1 2 3 1 2 5 -1 -4 -3 12 7 2 1 4 10 -5 -11 -6 -6 -5 -4 -0 -1 -1
-1 -1 -0 -1 -1 -0 0 2 0 -1 -4 -1 1 -2 -5 -2 -1 -4 -5 4 1 -1 -1 1 5 0 2 -3 0 -4 3 5 -4 -4 -9 -5 -1 -1 -3 -3 -6 0 -1
Height
1455 1461 1464 1462 1462 1465 1465 1466 1468 1469 1473 1475 1477 1478 1479 1482 1484 1486 1487 1487 1487 1488 1488 1488 1487 1485 1483 1481 1479 1477 1474 1472 1468 1463 1458 1455 1455 1454 1450 1449 1447 1444 1441
1454 1460 1463 1463 1465 1464 1465 1467 1469 1471 1473 1474 1475 1477 1480 1482 1484 1486 1486 1488 1488 1487 1487 1486 1485 1483 1481 1479 1476 1473 1470 1468 1466 1461 1456 1450 1447 1448 1448 1444 1441 1438 1436
1449 1458 1461 1464 1465 1464 1466 1467 1468 1471 1473 1474 1476 1479 1481 1483 1485 1487 1487 1488 1487 1487 1486 1485 1483 1482 1479 1476 1473 1470 1468 1465 1464 1462 1461 1454 1448 1441 1437 1437 1435 1433 1431
1446 1455 1460 1463 1465 1465 1467 1468 1469 1472 1474 1476 1477 1480 1481 1483 1485 1486 1487 1487 1487 1486 1485 1482 1480 1478 1476 1473 1470 1468 1466 1463 1460 1458 1458 1457 1452 1445 1429 1429 1428 1425 1423
1445 1453 1458 1462 1464 1466 1468 1468 1470 1473 1475 1477 1479 1481 1482 1484 1486 1486 1486 1485 1484 1483 1481 1479 1478 1475 1473 1470 1467 1465 1463 1461 1458 1455 1452 1449 1446 1443 1437 1418 1418 1417 1415
1445 1452 1457 1461 1464 1466 1468 1470 1471 1473 1475 1477 1479 1481 1482 1484 1485 1485 1485 1484 1482 1480 1479 1478 1475 1472 1470 1467 1464 1462 1460 1458 1455 1452 1449 1446 1442 1438 1433 1423 1413 1407 1405
1445 1450 1455 1459 1463 1466 1469 1471 1472 1473 1475 1477 1479 1481 1482 1483 1484 1484 1484 1483 1481 1479 1477 1474 1472 1470 1467 1465 1462 1460 1457 1454 1450 1447 1444 1441 1438 1434 1429 1423 1410 1401 1397
1444 1450 1455 1458 1462 1466 1469 1471 1472 1473 1476 1477 1479 1480 1481 1482 1482 1482 1482 1481 1479 1477 1474 1472 1470 1467 1465 1462 1459 1457 1453 1450 1446 1443 1439 1436 1432 1429 1425 1419 1412 1394 1388
1442 1449 1454 1457 1461 1464 1468 1470 1471 1473 1476 1477 1478 1479 1480 1481 1481 1481 1480 1478 1477 1474 1471 1469 1467 1465 1462 1459 1456 1452 1448 1445 1441 1437 1434 1430 1426 1422 1418 1414 1410 1403 1383
1442 1448 1452 1456 1460 1464 1467 1469 1471 1473 1474 1476 1477 1478 1479 1479 1479 1479 1478 1476 1473 1471 1469 1467 1464 1462 1459 1455 1451 1448 1444 1440 1436 1432 1428 1424 1419 1415 1411 1406 1402 1398 1392
1439 1445 1451 1455 1459 1463 1466 1467 1470 1472 1473 1475 1476 1477 1477 1477 1477 1477 1475 1473 1470 1468 1466 1464 1461 1458 1455 1451 1446 1442 1438 1434 1430 1426 1421 1417 1413 1408 1403 1399 1395 1390 1387
1438 1444 1449 1454 1457 1461 1464 1466 1468 1470 1472 1473 1474 1476 1476 1476 1475 1474 1472 1470 1468 1466 1463 1461 1458 1455 1451 1446 1441 1437 1433 1429 1424 1420 1415 1410 1405 1400 1397 1392 1387 1382 1378
1437 1443 1448 1451 1456 1460 1462 1465 1467 1469 1471 1472 1473 1474 1474 1474 1473 1471 1469 1467 1465 1463 1460 1457 1454 1450 1446 1441 1437 1433 1429 1424 1420 1414 1409 1403 1399 1394 1390 1385 1380 1374 1368
1434 1441 1446 1450 1455 1459 1461 1463 1465 1468 1469 1471 1472 1473 1473 1472 1471 1469 1467 1465 1463 1460 1457 1454 1450 1446 1441 1437 1433 1429 1424 1418 1413 1408 1404 1399 1395 1390 1384 1379 1373 1367 1360
1433 1438 1443 1449 1453 1457 1460 1462 1464 1466 1468 1469 1470 1471 1470 1470 1468 1466 1464 1462 1460 1457 1453 1450 1446 1442 1438 1433 1429 1424 1419 1413 1407 1403 1398 1394 1390 1385 1380 1374 1366 1360 1353
1430 1436 1441 1447 1451 1454 1457 1460 1462 1464 1466 1467 1468 1469 1468 1467 1465 1463 1461 1459 1457 1453 1450 1446 1442 1438 1434 1430 1425 1421 1414 1408 1402 1396 1392 1388 1383 1378 1372 1367 1361 1355 1346
1428 1433 1439 1444 1447 1451 1454 1457 1460 1462 1464 1465 1466 1466 1466 1464 1462 1460 1458 1456 1453 1449 1445 1441 1437 1433 1429 1424 1420 1415 1409 1403 1397 1392 1386 1380 1376 1371 1363 1356 1351 1344 1339
1427 1432 1437 1442 1446 1449 1453 1455 1458 1461 1463 1464 1464 1463 1462 1461 1460 1458 1456 1452 1448 1445 1440 1436 1432 1428 1423 1419 1414 1409 1404 1398 1392 1387 1382 1376 1368 1362 1356 1348 1339 1334 1327
1426 1431 1436 1440 1444 1447 1450 1454 1457 1460 1461 1461 1461 1461 1460 1459 1457 1455 1451 1448 1444 1440 1436 1432 1427 1423 1418 1414 1410 1406 1399 1392 1386 1381 1376 1371 1362 1356 1350 1341 1331 1323 1316
1425 1429 1434 1439 1442 1446 1450 1453 1456 1458 1459 1459 1459 1458 1457 1456 1453 1451 1447 1444 1441 1437 1432 1427 1423 1418 1413 1409 1406 1402 1395 1388 1381 1374 1367 1362 1358 1349 1342 1334 1325 1315 1308
1426 1431 1435 1438 1442 1446 1449 1452 1454 1456 1457 1457 1456 1456 1454 1452 1450 1447 1444 1441 1437 1432 1427 1422 1417 1413 1409 1405 1401 1396 1390 1384 1375 1367 1359 1354 1349 1342 1335 1329 1320 1313 1304
1427 1432 1434 1438 1443 1446 1449 1451 1453 1454 1454 1454 1454 1453 1452 1450 1447 1444 1441 1437 1433 1427 1422 1417 1412 1408 1404 1400 1395 1391 1386 1380 1372 1363 1355 1348 1341 1335 1328 1322 1315 1307 1299
1428 1432 1435 1439 1443 1446 1448 1450 1451 1452 1452 1452 1452 1451 1449 1446 1444 1440 1436 1432 1428 1423 1418 1413 1408 1402 1399 1394 1389 1385 1380 1374 1366 1359 1351 1343 1337 1330 1322 1315 1309 1301 1291
1430 1433 1436 1439 1442 1445 1447 1448 1449 1450 1450 1450 1450 1448 1445 1443 1440 1437 1433 1428 1424 1419 1415 1410 1405 1400 1395 1389 1384 1378 1372 1366 1359 1351 1343 1337 1331 1324 1318 1309 1301 1294 1288
1430 1433 1436 1439 1442 1444 1446 1447 1448 1449 1449 1448 1446 1445 1443 1439 1436 1433 1429 1425 1422 1419 1413 1409 1404 1397 1391 1387 1383 1377 1369 1362 1354 1346 1338 1332 1325 1317 1310 1303 1297 1289 1282
1430 1433 1436 1438 1440 1442 1444 1446 1447 1447 1446 1445 1444 1442 1439 1436 1432 1428 1423 1422 1418 1414 1411 1407 1402 1396 1391 1385 1379 1372 1365 1358 1351 1342 1336 1329 1322 1315 1307 1299 1292 1285 1278